RH
61 66 69 74 73 74 75 75 62 60 60 64 73 72 68 80 96 74 98 87 83 82 43 55 74 81 72 57 56 34 20 14 14 14 16 34 29 30 34 36 32 34 34 47 67
75 79 70 76 82 77 77 67 62 70 57 75 77 78 80 86 95 95 94 86 89 92 57 75 78 72 56 48 49 33 19 13 17 19 26 31 28 28 28 30 30 35 32 48 64
80 75 76 82 79 84 71 64 71 68 66 73 79 77 82 93 97 90 90 85 86 89 92 81 72 61 45 45 42 32 18 21 30 33 29 29 27 27 26 28 26 28 38 54 67
76 66 76 81 76 73 66 65 66 73 79 69 87 82 86 81 65 82 91 89 85 82 88 76 72 58 40 38 39 29 31 30 33 36 31 28 27 26 26 26 27 31 28 49 65
68 62 71 75 84 71 76 76 78 92 98 74 83 93 92 87 71 85 87 89 85 88 95 70 65 50 38 32 33 27 30 31 35 34 30 28 27 25 22 25 24 28 31 50 59
70 64 61 66 75 74 72 69 72 82 99 98 90 94 91 70 72 80 89 86 81 79 89 70 60 47 35 30 23 29 30 32 31 30 30 26 25 26 23 28 28 30 39 50 53
62 62 61 62 65 69 68 69 66 75 97 90 88 89 81 77 76 89 87 82 74 71 92 68 68 48 34 32 33 31 32 28 30 29 27 27 27 26 25 32 38 40 44 49 50
61 59 62 62 56 55 68 69 72 70 83 87 78 76 83 78 75 82 81 82 84 77 94 66 63 45 36 32 28 28 27 32 29 28 28 30 32 24 26 29 32 36 41 40 36
59 56 60 56 53 47 47 52 55 62 65 80 79 83 93 88 82 81 84 84 78 79 78 53 58 36 36 28 32 31 25 27 33 29 27 26 25 23 25 26 26 31 33 37 40
57 56 54 48 46 42 42 44 47 57 65 71 72 76 95 92 86 83 79 71 73 69 50 44 36 33 31 34 52 27 28 30 33 29 26 25 22 23 24 23 24 25 27 28 28
54 52 48 46 43 41 37 37 42 51 49 61 55 55 72 71 79 65 55 58 52 49 52 42 43 48 32 24 22 22 23 22 32 31 25 27 20 21 24 26 22 22 21 21 20
51 46 46 42 42 42 38 44 55 54 61 42 51 52 64 66 61 50 49 44 44 57 35 36 44 38 31 28 26 25 27 31 30 34 22 27 22 19 25 26 27 23 22 21 22
48 43 43 40 42 36 35 45 51 54 51 37 39 59 55 54 44 42 40 43 50 40 33 35 43 43 29 28 28 30 27 29 28 33 30 25 19 20 23 35 42 42 42 37 32
46 43 41 39 40 38 40 44 57 54 64 53 37 44 43 39 40 39 38 40 43 42 40 45 44 39 32 36 34 25 35 28 34 27 26 27 23 17 18 27 36 38 42 40 42
43 40 38 37 39 43 45 49 65 49 64 37 38 34 36 40 38 37 35 32 42 43 40 58 51 44 40 53 44 36 34 29 27 29 28 25 24 9 24 23 25 32 38 46 50
41 40 37 38 38 45 51 61 43 66 63 45 42 41 33 38 40 34 31 32 40 40 44 54 56 56 53 49 43 40 30 27 25 26 50 44 34 10 14 16 22 30 39 48 52
32 34 40 41 48 56 61 53 79 72 45 43 46 41 39 41 38 40 44 42 43 75 78 42 48 50 56 40 40 35 30 59 51 74 31 52 55 18 15 22 28 34 37 48 56
32 34 44 50 55 56 54 41 71 56 53 44 43 36 41 39 40 41 39 42 44 31 45 59 59 55 56 53 32 31 27 58 45 39 28 53 63 20 26 27 32 37 38 51 60
41 37 45 43 51 47 47 83 67 50 53 50 35 34 39 36 34 35 44 44 45 46 33 55 56 50 58 51 47 36 34 30 47 58 46 34 28 22 28 28 34 42 49 53 56
38 42 49 48 43 41 54 66 58 56 56 48 35 37 35 37 33 33 37 46 46 45 42 32 53 55 52 52 41 35 35 29 33 54 29 26 20 28 29 31 32 42 46 48 47
39 39 40 41 38 46 81 59 54 56 57 46 41 36 38 37 38 38 39 49 50 46 39 29 31 48 48 42 35 34 33 31 26 28 20 16 17 24 28 32 31 32 43 45 43
37 52 35 37 50 58 60 53 57 51 57 46 44 40 38 41 42 42 40 49 58 55 41 41 30 42 37 50 50 44 35 26 21 28 33 27 22 21 26 32 37 32 41 47 43
31 34 31 30 54 56 55 54 59 50 53 47 47 42 41 44 42 48 52 56 60 51 41 35 32 40 33 39 46 44 44 37 31 32 32 21 12 17 25 31 34 38 39 48 41
29 58 34 32 46 40 42 44 48 54 52 51 46 42 39 42 45 47 48 56 61 60 51 42 35 24 19 26 37 43 49 40 30 37 22 20 12 13 17 21 26 36 37 42 42
34 52 50 54 44 46 43 42 38 40 48 46 42 42 39 36 37 47 53 50 54 57 48 31 34 44 37 37 41 40 38 49 40 28 22 17 24 18 18 19 21 25 35 39 43
43 50 47 55 54 39 45 49 42 51 44 41 43 45 39 36 38 36 46 42 41 44 46 39 51 45 47 46 45 42 33 35 41 39 40 35 34 21 23 26 28 28 31 42 42
42 46 47 56 43 35 42 47 47 46 53 53 46 43 44 51 52 55 56 58 52 42 46 40 44 41 31 40 34 29 22 33 37 39 33 28 20 27 25 29 29 28 30 37 40
Wind_Speed
20 20 19 19 20 17 21 13 10 14 17 15 17 20 21 24 22 22 26 23 25 8 12 16 15 14 15 12 8 5 7 12 12 12 10 16 10 5 4 9 5 4 4 7 24
20 22 28 23 18 15 13 6 10 12 12 9 11 16 23 24 21 20 22 24 22 18 12 16 17 16 12 12 8 9 10 13 4 6 9 19 13 13 8 11 4 5 8 14 24
20 22 27 28 21 11 7 7 9 9 9 5 2 9 20 22 15 15 23 21 23 16 12 13 14 17 16 14 10 9 13 5 5 4 10 18 12 8 11 8 8 11 13 20 25
18 22 27 29 23 14 10 10 9 8 8 2 3 5 15 22 11 15 21 23 18 19 15 13 15 17 14 14 10 11 2 3 5 3 10 13 13 8 7 4 8 7 12 23 23
16 21 24 27 24 19 18 15 13 11 9 4 6 10 16 15 5 15 26 18 23 15 14 14 19 18 13 15 11 6 7 4 4 6 8 11 7 6 5 5 10 12 15 20 19
13 17 17 17 20 22 22 18 19 7 4 7 11 17 9 14 9 14 17 21 22 12 9 14 17 16 11 15 15 8 10 9 6 6 5 9 5 6 3 5 11 14 16 17 16
13 14 15 16 15 11 12 17 18 22 2 10 5 8 5 3 8 22 21 18 19 19 11 16 9 10 11 9 9 17 10 9 6 3 4 7 5 4 4 6 9 12 14 16 15
13 14 13 15 19 16 10 11 14 15 17 10 16 9 4 6 9 17 18 17 22 24 17 14 15 9 4 15 8 7 9 10 4 2 2 5 13 6 4 8 10 11 12 15 16
10 11 12 14 17 16 11 11 12 10 8 5 12 7 3 6 9 11 19 19 21 16 12 10 9 6 7 15 9 6 13 12 7 3 2 7 6 7 4 9 11 12 12 13 13
8 9 10 13 13 19 9 6 6 7 8 4 2 4 4 2 15 13 14 18 17 12 9 7 5 8 9 14 13 16 12 7 10 3 3 7 3 5 4 8 12 11 12 12 12
4 8 11 13 14 16 15 10 9 4 8 1 3 7 8 9 9 8 9 14 10 12 8 4 5 13 18 15 8 13 14 15 5 2 3 6 5 6 5 6 10 12 12 12 11
2 6 10 14 10 17 18 9 7 4 3 11 14 12 14 10 6 9 13 9 13 12 6 5 6 2 3 6 9 12 16 7 5 4 1 3 8 6 7 6 9 12 12 12 10
4 7 9 13 9 17 18 15 10 7 2 6 12 17 6 5 3 5 12 9 9 6 9 8 3 4 4 9 11 6 12 8 6 6 4 1 5 7 6 7 7 8 8 9 10
5 8 10 13 6 15 12 12 8 4 2 12 8 6 3 4 5 8 12 10 2 10 9 9 5 3 7 6 1 8 2 7 13 8 4 2 4 7 10 9 10 10 8 7 7
8 9 13 14 14 10 13 7 3 2 3 13 6 4 7 5 0 9 4 4 6 3 3 4 4 3 4 3 3 6 5 7 7 5 3 2 3 4 4 11 15 14 10 7 5
9 10 13 14 13 11 9 6 2 1 5 6 7 8 3 9 6 3 4 11 7 9 15 7 2 4 3 7 4 13 9 6 4 2 1 2 2 6 6 5 5 14 12 9 7
8 9 10 10 8 8 9 1 1 5 2 5 4 5 5 8 5 7 6 6 3 4 5 6 5 2 4 9 3 0 4 3 2 1 2 1 2 10 2 2 1 14 16 13 11
7 7 7 8 10 9 3 2 8 1 2 3 3 2 5 7 5 6 2 3 6 2 4 4 4 7 8 4 1 3 2 3 5 5 3 1 6 2 3 1 1 10 14 14 13
6 4 5 10 9 6 1 6 3 2 2 4 2 3 3 2 1 2 5 3 5 6 2 5 3 2 4 3 3 4 1 1 6 2 1 2 4 7 4 3 3 10 13 14 14
4 1 10 9 7 4 5 5 2 2 3 2 2 3 3 5 2 3 4 3 4 6 4 3 6 2 2 1 8 2 5 2 1 2 3 2 4 3 1 9 8 11 15 15 14
3 1 14 7 6 7 4 3 2 2 2 1 2 2 3 1 3 2 3 2 3 4 3 2 1 2 2 3 2 3 2 4 2 2 1 3 1 2 1 2 11 14 17 17 18
4 1 12 5 3 4 2 2 2 2 2 2 2 4 3 3 3 2 2 2 5 3 2 2 3 4 2 2 2 2 1 1 2 3 2 2 4 2 2 4 6 13 15 17 16
3 4 11 4 3 3 2 2 3 3 3 4 2 1 1 2 2 3 2 2 6 2 2 1 1 5 2 2 1 3 2 2 3 1 6 3 2 1 3 4 6 12 14 17 20
2 1 7 9 7 3 2 2 2 3 3 3 3 2 1 2 3 4 2 1 2 2 4 0 2 3 2 4 3 4 5 7 4 3 4 9 11 6 5 6 4 9 15 20 22
4 3 2 3 5 5 2 1 1 1 2 4 3 5 3 2 2 3 3 2 2 5 3 2 2 2 2 3 3 3 6 10 11 10 8 6 7 13 12 13 17 16 14 18 20
3 1 3 2 1 1 3 3 2 1 4 3 2 2 3 3 2 2 1 1 3 4 3 4 2 2 0 2 2 6 11 12 13 12 15 17 22 11 9 8 12 15 14 18 21
4 4 2 2 1 1 1 1 1 1 2 3 1 1 5 3 3 5 6 6 4 2 2 2 2 2 2 4 6 8 7 12 4 6 6 7 5 8 10 12 15 16 14 17 20
Wind_Direction
359 352 347 343 335 329 330 315 298 305 301 287 272 249 221 208 206 204 205 213 209 229 218 198 202 191 182 190 192 187 212 206 195 197 181 161 166 151 155 144 153 168 143 153 174
11 15 10 352 340 339 335 342 323 322 316 297 277 237 205 197 195 200 205 207 208 217 198 187 190 178 181 186 193 214 213 202 208 171 173 168 181 155 160 156 164 164 178 165 173
24 22 10 14 16 12 26 8 4 341 327 302 354 172 181 179 166 208 202 203 207 193 197 194 190 179 185 182 184 191 211 162 156 148 164 163 164 162 161 185 181 186 175 168 174
25 34 29 32 28 39 46 20 356 351 14 20 179 182 176 169 174 200 193 206 203 190 189 194 186 189 183 185 179 183 161 162 145 161 157 168 151 155 189 131 158 153 172 167 175
28 30 31 35 37 37 36 31 27 44 61 105 124 153 164 185 202 183 192 197 193 184 186 189 187 191 188 176 160 180 158 118 131 140 143 145 159 155 137 146 161 163 165 170 176
10 8 16 27 38 26 22 33 28 6 81 118 156 161 172 192 205 179 180 188 191 164 191 192 192 199 168 171 190 150 139 128 115 126 128 163 142 165 160 147 152 162 165 172 178
5 360 2 6 11 17 0 358 13 27 131 66 73 162 155 217 186 169 163 165 190 204 231 200 212 219 165 141 139 142 121 125 93 113 134 154 148 169 151 157 155 160 167 174 181
356 357 358 359 360 3 340 350 358 3 43 44 80 128 59 168 168 174 173 172 179 167 224 213 211 231 206 131 123 161 162 159 112 146 154 222 185 158 176 178 174 170 173 180 190
359 356 352 358 5 9 354 11 42 354 7 23 37 48 345 154 203 177 177 155 157 182 217 201 203 211 154 163 148 186 172 173 142 55 172 218 154 166 176 194 187 183 183 187 197
356 355 359 356 11 7 356 359 358 335 323 297 316 129 172 251 148 127 147 146 165 183 180 151 203 195 172 179 179 174 158 155 150 130 182 190 150 154 175 201 201 193 196 201 206
356 354 358 3 17 13 18 36 26 27 35 353 114 94 146 176 185 227 193 159 182 184 151 134 219 189 178 185 162 160 159 155 120 78 166 187 179 182 188 212 207 206 206 210 213
4 350 356 360 346 8 15 52 33 351 336 51 91 67 109 113 124 160 159 174 171 152 153 158 194 25 121 132 152 151 149 127 100 49 218 177 225 201 209 222 224 225 223 225 224
332 335 336 352 351 3 4 12 19 1 290 36 43 78 109 108 64 121 177 143 131 129 151 154 41 303 172 135 136 118 170 159 139 132 80 217 232 207 207 227 228 234 233 231 226
313 319 325 333 345 344 352 348 356 4 70 354 3 93 245 279 80 87 129 131 93 112 95 76 7 254 140 99 216 143 65 130 134 159 171 330 240 207 206 216 221 220 216 211 211
311 311 312 324 324 336 333 337 352 118 67 336 331 355 30 73 156 36 129 76 81 70 234 65 43 31 101 66 323 114 134 119 126 99 158 95 247 206 181 228 222 208 202 194 189
313 315 320 326 326 333 344 332 108 155 46 349 337 350 39 46 4 30 86 83 108 74 76 84 56 19 39 56 92 130 115 84 82 104 209 76 274 240 198 226 202 192 187 180 176
312 322 337 350 346 347 345 355 101 56 307 360 355 1 69 18 46 28 36 42 63 112 58 82 36 8 14 100 98 134 173 107 125 184 241 69 216 254 219 166 268 187 179 175 169
324 325 331 342 336 337 12 188 68 294 317 342 321 8 66 3 44 19 77 75 54 36 104 115 143 2 350 21 88 132 300 178 162 179 153 49 230 245 15 120 105 177 174 172 173
336 331 343 335 340 344 136 57 86 196 319 326 289 64 51 50 84 66 46 38 17 10 49 130 88 336 28 17 324 150 187 71 103 60 247 191 266 243 260 201 159 165 171 178 180
352 65 3 352 360 38 71 97 47 254 313 293 53 1 73 6 50 39 31 14 4 21 314 152 108 28 351 262 57 19 123 131 64 130 236 208 269 271 225 209 190 190 192 189 186
28 85 1 10 39 50 76 88 160 210 192 3 22 93 73 71 48 60 26 58 4 346 355 121 83 116 257 18 72 146 138 63 76 351 303 315 50 197 284 241 212 210 205 199 196
33 42 357 24 33 42 57 51 340 359 338 148 104 57 46 36 67 98 95 30 354 313 32 42 92 107 68 35 347 5 40 309 262 168 71 347 277 115 276 278 260 229 214 208 206
49 17 12 51 81 59 91 76 34 20 33 2 86 29 139 89 108 49 59 11 358 8 28 87 59 120 125 166 166 231 160 103 96 44 214 248 238 201 274 273 258 230 220 212 212
44 39 28 52 59 95 132 46 84 36 42 15 27 346 20 80 26 134 139 53 13 75 30 289 79 18 82 85 99 179 190 198 207 196 208 231 268 246 259 291 285 242 230 219 217
46 78 61 22 45 47 5 54 72 60 57 35 76 51 25 53 37 49 11 19 33 1 9 350 104 100 135 151 184 219 195 190 207 225 239 299 261 278 285 290 294 285 249 223 216
62 66 81 91 36 22 11 46 21 56 349 16 86 55 27 84 44 62 96 40 23 39 38 3 70 9 250 44 301 268 243 228 229 249 260 271 280 300 305 306 286 278 268 242 230
54 58 80 7 48 184 71 97 85 122 58 38 22 95 74 73 71 93 84 83 77 50 74 39 108 12 2 351 313 273 270 208 203 230 245 255 298 349 311 301 290 291 274 253 243